STARLINK-30354, 57772

Orbit data source: Space-Track

STARLINK-30354, 57772 is a payload satellite in LEO that was launched on Mon, 04 Sep 2023 UTC via an FALCON 9 launch vehicle from the Air Force Eastern Test Range (AFETR). Payload-class satellites include a variety of spacecraft equipped with specific instruments for various scientific and technological missions. These include communications satellites like Starlink; space stations such as the ISS; scientific satellites like the Hubble; Earth observation satellites from companies like Planet Labs, Umbra, and HawkEye 360; GPS; miniature CubeSats for education and research; and military/defense satellites.

Loading next visibility...
Identifier
57772, 2023-134B
Orbit
LEO
Last TLE update
15 hours ago
Origin
Manufacturer
SpaceX/Seattle
Mission
Operational Commercial Communications
Bus & Motor
STARLINK V2M, Unknown motor
Mass
730 kg wet, ~700 kg dry
Launch date (UTC)
2023-09-04 (2 years ago)
Launch vehicle
FALCON 9
Launch site
Air Force Eastern Test Range (AFETR)
Object type
Payload
Rocket body
Debris
Shape & HBR
Box + 2 Pan, 29 m
Radar Cross Section
33.884 m², Large (>1 m²)

Expand to show TLE details & history

TLE from 15 hours ago
0 STARLINK-30354
1 57772U 23134B   25150.75178223 -.00001109  00000-0 -66980-4 0  9995
2 57772  43.0034 294.6030 0001407 259.4749 100.5934 15.02544546 96913
Epoch: 2025-05-30T18:02Z
TLE epoch observation values (Epoch: 2025-05-30T18:02:33.984Z)
Latitude
-0.00009°
Longitude
135.45929°
Altitude
559.011 km
Speed
7.584 km/s
True Right ascension
19h 38m 24s
True Declination
0° 00' 00"
Sunlit
Object was in full shadow at epoch
Visualization orbit readout
Latitude
33.57003°
Longitude
177.20065°
Altitude
561.111 km
Speed
7.585 km/s
Apparent Right ascension
01h 48m 48s
Apparent Declination
-2° 35' 15"
Sunlit
Object is in daylight
Visualization observer readout
Local Sidereal Time
18:14:21
Azimuth
76.36° E
Elevation
-19.625°
Doppler factor
1
Orbital elements
Apogee altitude
561.953 km
Perigee altitude
560 km
Semi-major axis
6,939.114 km
Eccentricity
0.00014
Inclination
43.0034°
RAAN
294.603°
Arg. of periapsis
259.4749°
True anomaly
Unknown
Mean anomaly
100.5934°
Eccentric anomaly
Unknown
Mean motion
3.7548 °/min
Orbital period
95.88 mins
BSTAR
-0.00006698
Loading maneuver chart data...
Loading SW <> Apogee altitude chart data...
Loading historical data...
Loading historical data...
Loading historical data...
Loading historical data...
Loading historical data...
Loading historical data...
Loading historical data...

STARLINK-30354 Visibility forecast

Observer location: undefined°, undefined°

Span
Click to sort rows by Start time (UTC) header in descending order
Start Az.
Max El. time (UTC)
Max El. Az.
Max El.
End time (UTC)
End Az.
4 mins2025-05-31 11:46:25.628Z171.56° S2025-05-31 11:48:25.628Z139.218° SSE15.837°2025-05-31 11:50:25.628Z108.009° ESE
7 mins2025-05-31 13:25:25.628Z236.012° WSW2025-05-31 13:28:25.628Z162.007° S42.602°2025-05-31 13:32:25.628Z74.774° E
6 mins2025-05-31 15:06:25.628Z279.175° WNW2025-05-31 15:09:25.628Z6.68° NNE40.089°2025-05-31 15:12:25.628Z70.736° E
6 mins2025-05-31 16:47:25.628Z291.993° WNW2025-05-31 16:50:25.628Z36.56° NE42.628°2025-05-31 16:53:25.628Z94.322° ESE
6 mins2025-05-31 18:28:25.628Z269.017° W2025-05-31 18:30:25.628Z224.024° SW33.151°2025-05-31 18:34:25.628Z140.099° SSE
|